| time (UTC) | temp F | wind direction | speed MPH | gust MPH | rain 1hr in | rain 24hr in | rain mn in | humidity % | barometer mb |
| 20260510164036 | 81 | 306 | 1.0 | 4.0 | 0.00 | 0.09 | 0.01 | 72 | 1017.1 |
| 20260510163531 | 81 | 8 | 1.0 | 4.0 | 0.00 | 0.11 | 0.01 | 71 | 1017.1 |
| 20260510163037 | 80 | 295 | 1.0 | 4.0 | 0.00 | 0.12 | 0.01 | 75 | 1017.1 |
| 20260510162530 | 80 | 348 | 1.0 | 3.0 | 0.00 | 0.15 | 0.01 | 75 | 1017.2 |
| 20260510162033 | 79 | 295 | 1.0 | 4.0 | 0.00 | 0.18 | 0.01 | 76 | 1017.1 |
| 20260510161528 | 79 | 65 | 1.0 | 4.0 | 0.00 | 0.20 | 0.01 | 77 | 1017.1 |
| 20260510161028 | 79 | 305 | 1.0 | 3.0 | 0.00 | 0.21 | 0.01 | 77 | 1017.0 |
| 20260510160530 | 78 | 171 | 1.0 | 3.0 | 0.00 | 0.22 | 0.01 | 77 | 1017.0 |
| 20260510160038 | 78 | 278 | 1.0 | 4.0 | 0.00 | 0.24 | 0.01 | 78 | 1017.0 |
| 20260510155528 | 78 | 349 | 1.0 | 4.0 | 0.00 | 0.26 | 0.01 | 77 | 1017.0 |
| 20260510155044 | 77 | 37 | 2.0 | 4.0 | 0.00 | 0.29 | 0.01 | 81 | 1017.0 |
| 20260510155028 | 77 | 48 | 1.0 | 4.0 | 0.00 | 0.28 | 0.01 | 81 | 1017.0 |
| 20260510154029 | 76 | 49 | 2.0 | 5.0 | 0.00 | 0.30 | 0.01 | 82 | 1017.0 |
| 20260510153903 | 76 | 58 | 1.0 | 4.0 | 0.00 | 0.36 | 0.01 | 84 | 1016.9 |
| 20260510153758 | 76 | 75 | 2.0 | 5.0 | 0.00 | 0.36 | 0.01 | 82 | 1016.9 |
| 20260510152526 | 76 | 12 | 0.0 | 2.0 | 0.00 | 0.36 | 0.01 | 87 | 1016.9 |
| 20260510152026 | 74 | 207 | 0.0 | 3.0 | 0.00 | 0.36 | 0.01 | 91 | 1017.0 |
| 20260510151526 | 74 | 8 | 1.0 | 3.0 | 0.00 | 0.36 | 0.01 | 92 | 1016.9 |
| 20260510151026 | 73 | 51 | 1.0 | 3.0 | 0.00 | 0.36 | 0.01 | 92 | 1016.9 |
| 20260510150530 | 73 | 56 | 2.0 | 4.0 | 0.00 | 0.36 | 0.01 | 94 | 1017.1 |
| 20260510150526 | 73 | 79 | 1.0 | 4.0 | 0.00 | 0.36 | 0.01 | 93 | 1017.0 |
| 20260510145530 | 72 | 84 | 1.0 | 3.0 | 0.00 | 0.36 | 0.01 | 95 | 1017.1 |
| 20260510145526 | 72 | 68 | 1.0 | 4.0 | 0.00 | 0.36 | 0.01 | 94 | 1017.2 |
| 20260510144526 | 71 | 89 | 1.0 | 4.0 | 0.00 | 0.36 | 0.01 | 95 | 1017.1 |
| 20260510144026 | 71 | 41 | 1.0 | 4.0 | 0.00 | 0.36 | 0.01 | 95 | 1017.1 |
| 20260510143755 | 71 | 82 | 1.0 | 2.0 | 0.00 | 0.36 | 0.01 | 95 | 1017.1 |
| 20260510143024 | 70 | 14 | 0.0 | 2.0 | 0.00 | 0.36 | 0.01 | 95 | 1017.2 |
| 20260510142524 | 70 | 136 | 1.0 | 2.0 | 0.00 | 0.36 | 0.01 | 95 | 1017.3 |
| 20260510142025 | 70 | 106 | 1.0 | 2.0 | 0.00 | 0.36 | 0.01 | 95 | 1017.4 |
| 20260510141524 | 69 | 120 | 1.0 | 3.0 | 0.00 | 0.36 | 0.01 | 95 | 1017.3 |
| 20260510141024 | 69 | 56 | 1.0 | 3.0 | 0.00 | 0.36 | 0.01 | 95 | 1017.3 |
| 20260510140524 | 69 | 57 | 1.0 | 3.0 | 0.00 | 0.36 | 0.01 | 95 | 1017.3 |
| 20260510140024 | 69 | 42 | 1.0 | 2.0 | 0.00 | 0.36 | 0.01 | 95 | 1017.2 |
| 20260510135524 | 69 | 69 | 1.0 | 2.0 | 0.00 | 0.36 | 0.01 | 95 | 1017.1 |
| 20260510135024 | 69 | 85 | 0.0 | 1.0 | 0.00 | 0.36 | 0.01 | 95 | 1017.0 |
| 20260510134522 | 69 | 94 | 0.0 | 1.0 | 0.00 | 0.36 | 0.01 | 95 | 1016.9 |
| 20260510134022 | 68 | 94 | 1.0 | 2.0 | 0.00 | 0.36 | 0.01 | 95 | 1016.8 |
| 20260510133522 | 68 | 94 | 1.0 | 2.0 | 0.00 | 0.36 | 0.01 | 95 | 1016.8 |
| 20260510133023 | 68 | 109 | 1.0 | 2.0 | 0.00 | 0.36 | 0.01 | 95 | 1016.7 |
| 20260510132522 | 68 | 103 | 1.0 | 2.0 | 0.00 | 0.36 | 0.01 | 95 | 1016.7 |
| 20260510132026 | 68 | 78 | 1.0 | 2.0 | 0.00 | 0.36 | 0.01 | 95 | 1016.7 |
| 20260510132022 | 67 | 71 | 1.0 | 2.0 | 0.00 | 0.36 | 0.01 | 95 | 1016.7 |
| 20260510131022 | 67 | 56 | 1.0 | 2.0 | 0.00 | 0.36 | 0.01 | 95 | 1016.7 |
| 20260510130522 | 67 | 75 | 1.0 | 2.0 | 0.00 | 0.36 | 0.01 | 95 | 1016.7 |
| 20260510130021 | 67 | 37 | 1.0 | 3.0 | 0.00 | 0.36 | 0.01 | 95 | 1016.7 |
| 20260510125520 | 67 | 27 | 1.0 | 3.0 | 0.00 | 0.36 | 0.01 | 95 | 1016.7 |
| 20260510125251 | 66 | 36 | 1.0 | 2.0 | 0.00 | 0.36 | 0.01 | 95 | 1016.6 |
| 20260510124751 | 66 | 70 | 1.0 | 3.0 | 0.00 | 0.36 | 0.01 | 95 | 1016.6 |
| 20260510124020 | 66 | 88 | 1.0 | 3.0 | 0.00 | 0.36 | 0.01 | 95 | 1016.5 |
| 20260510123750 | 66 | 64 | 1.0 | 3.0 | 0.00 | 0.36 | 0.01 | 96 | 1016.4 |
| 20260510123019 | 66 | 72 | 1.0 | 3.0 | 0.00 | 0.36 | 0.01 | 96 | 1016.3 |
| 20260510122521 | 66 | 95 | 1.0 | 2.0 | 0.00 | 0.36 | 0.01 | 96 | 1016.2 |
| 20260510122020 | 66 | 64 | 1.0 | 3.0 | 0.00 | 0.36 | 0.01 | 96 | 1016.2 |
| 20260510121520 | 65 | 45 | 1.0 | 3.0 | 0.00 | 0.36 | 0.01 | 95 | 1016.0 |
| 20260510121017 | 65 | 56 | 1.0 | 3.0 | 0.00 | 0.36 | 0.01 | 95 | 1015.9 |
| 20260510120516 | 65 | 96 | 1.0 | 3.0 | 0.00 | 0.36 | 0.01 | 95 | 1015.8 |
| 20260510120246 | 65 | 56 | 1.0 | 3.0 | 0.00 | 0.36 | 0.01 | 95 | 1015.8 |
| 20260510115747 | 65 | 68 | 0.0 | 2.0 | 0.00 | 0.36 | 0.01 | 95 | 1015.6 |
| 20260510115016 | 0 | 68 | 0.0 | 1.0 | 0.00 | 0.36 | 0.01 | 1015.6 | |
| 20260510114515 | 0 | 0.0 | 0.0 | 0.00 | 0.36 | 0.01 | 1015.5 | ||
| 20260510114247 | 0 | 0.0 | 0.0 | 0.00 | 0.36 | 0.01 | 1015.4 | ||
| 20260510113744 | 0 | 0.0 | 0.0 | 0.00 | 0.36 | 0.01 | 1015.3 | ||
| 20260510113012 | 0 | 0.0 | 0.0 | 0.00 | 0.36 | 0.01 | 1015.4 | ||
| 20260510112511 | 0 | 0.0 | 0.0 | 0.00 | 0.36 | 0.01 | 1015.3 | ||
| 20260510112240 | 0 | 0.0 | 0.0 | 0.00 | 0.36 | 0.01 | 1015.2 | ||
| 20260510111501 | 0 | 0.0 | 0.0 | 0.00 | 0.36 | 0.01 | 1015.1 | ||
| 20260510110918 | 0 | 0.0 | 0.0 | 0.00 | 0.36 | 0.01 | 1015.1 | ||
| 20260510110410 | 0 | 0.0 | 0.0 | 0.00 | 0.36 | 0.01 | 1015.1 | ||
| 20260510105815 | 0 | 0.0 | 0.0 | 0.00 | 0.36 | 0.01 | 1015.0 | ||
| 20260510105312 | 0 | 0.0 | 0.0 | 0.00 | 0.36 | 0.01 | 1014.8 | ||
| 20260510105047 | 0 | 0.0 | 0.0 | 0.00 | 0.36 | 0.01 | 1014.7 | ||
| 20260510104811 | 0 | 0.0 | 0.0 | 0.00 | 0.36 | 0.01 | 1014.8 | ||
| 20260510103808 | 0 | 0.0 | 0.0 | 0.00 | 0.36 | 0.01 | 1014.6 | ||
| 20260510103215 | 0 | 0.0 | 0.0 | 0.00 | 0.36 | 0.01 | 1014.4 | ||
| 20260510102712 | 0 | 0.0 | 0.0 | 0.00 | 0.36 | 0.01 | 1014.4 | ||
| 20260510102208 | 0 | 0.0 | 0.0 | 0.00 | 0.36 | 0.01 | 1014.4 | ||
| 20260510101708 | 0 | 75 | 0.0 | 0.0 | 0.00 | 0.36 | 0.01 | 1014.4 | |
| 20260510101117 | 0 | 75 | 0.0 | 1.0 | 0.00 | 0.36 | 0.01 | 1014.4 | |
| 20260510100618 | 64 | 75 | 0.0 | 1.0 | 0.00 | 0.36 | 0.01 | 95 | 1014.4 |
| 20260510100116 | 64 | 77 | 0.0 | 1.0 | 0.00 | 0.36 | 0.01 | 95 | 1014.3 |
| 20260510095616 | 65 | 77 | 0.0 | 1.0 | 0.00 | 0.36 | 0.01 | 95 | 1014.3 |
| 20260510095114 | 65 | 77 | 0.0 | 1.0 | 0.00 | 0.36 | 0.01 | 95 | 1014.2 |
| 20260510094614 | 65 | 77 | 0.0 | 2.0 | 0.00 | 0.36 | 0.01 | 95 | 1014.1 |
| 20260510094115 | 65 | 77 | 0.0 | 2.0 | 0.00 | 0.36 | 0.01 | 95 | 1014.1 |
| 20260510093614 | 65 | 112 | 0.0 | 2.0 | 0.00 | 0.36 | 0.01 | 95 | 1013.9 |
| 20260510093113 | 65 | 127 | 0.0 | 2.0 | 0.00 | 0.36 | 0.01 | 95 | 1013.7 |
| 20260510092614 | 65 | 129 | 0.0 | 1.0 | 0.00 | 0.36 | 0.01 | 95 | 1013.7 |
| 20260510092114 | 65 | 129 | 0.0 | 2.0 | 0.00 | 0.36 | 0.01 | 95 | 1013.6 |
| 20260510091614 | 65 | 129 | 0.0 | 2.0 | 0.00 | 0.36 | 0.01 | 95 | 1013.6 |
| 20260510091345 | 65 | 129 | 0.0 | 1.0 | 0.00 | 0.36 | 0.01 | 95 | 1013.7 |
| 20260510090614 | 65 | 129 | 0.0 | 1.0 | 0.00 | 0.36 | 0.01 | 95 | 1013.7 |
| 20260510090117 | 65 | 129 | 0.0 | 1.0 | 0.00 | 0.36 | 0.01 | 95 | 1013.5 |
| 20260510090113 | 65 | 129 | 0.0 | 1.0 | 0.00 | 0.36 | 0.01 | 95 | 1013.5 |
| 20260510085112 | 65 | 129 | 0.0 | 1.0 | 0.00 | 0.36 | 0.01 | 95 | 1013.5 |
| 20260510084616 | 66 | 129 | 0.0 | 1.0 | 0.00 | 0.36 | 0.01 | 95 | 1013.4 |
| 20260510084612 | 65 | 129 | 0.0 | 1.0 | 0.00 | 0.36 | 0.01 | 95 | 1013.5 |
| 20260510083612 | 66 | 129 | 0.0 | 1.0 | 0.00 | 0.36 | 0.01 | 95 | 1013.4 |
| 20260510083112 | 66 | 129 | 0.0 | 1.0 | 0.00 | 0.36 | 0.01 | 95 | 1013.4 |
| 20260510082612 | 66 | 129 | 0.0 | 1.0 | 0.00 | 0.37 | 0.01 | 95 | 1013.3 |
| 20260510082111 | 66 | 129 | 0.0 | 1.0 | 0.00 | 0.37 | 0.01 | 95 | 1013.2 |
| 20260510081610 | 66 | 129 | 0.0 | 1.0 | 0.00 | 0.37 | 0.01 | 95 | 1013.2 |
| 20260510081110 | 66 | 129 | 0.0 | 1.0 | 0.00 | 0.38 | 0.01 | 95 | 1013.3 |
| 20260510080608 | 66 | 129 | 0.0 | 0.0 | 0.00 | 0.39 | 0.01 | 95 | 1013.2 |
| 20260510080108 | 66 | 129 | 0.0 | 0.0 | 0.00 | 0.39 | 0.01 | 95 | 1013.1 |
| 20260510075608 | 66 | 129 | 0.0 | 0.0 | 0.00 | 0.40 | 0.01 | 95 | 1013.1 |
| 20260510075108 | 66 | 129 | 0.0 | 0.0 | 0.00 | 0.40 | 0.01 | 95 | 1013.0 |
| 20260510074606 | 66 | 129 | 0.0 | 0.0 | 0.01 | 0.41 | 0.01 | 95 | 1013.2 |
| 20260510074106 | 66 | 129 | 0.0 | 1.0 | 0.01 | 0.41 | 0.01 | 95 | 1013.1 |
| 20260510073607 | 66 | 129 | 0.0 | 1.0 | 0.01 | 0.42 | 0.01 | 95 | 1013.1 |
| 20260510073104 | 66 | 129 | 0.0 | 0.0 | 0.01 | 0.42 | 0.01 | 95 | 1013.2 |
| 20260510072601 | 66 | 129 | 0.0 | 1.0 | 0.01 | 0.42 | 0.01 | 95 | 1013.1 |
| 20260510072102 | 67 | 129 | 0.0 | 1.0 | 0.01 | 0.42 | 0.01 | 95 | 1013.0 |
| 20260510071602 | 67 | 129 | 0.0 | 1.0 | 0.01 | 0.42 | 0.01 | 95 | 1012.8 |
| 20260510071059 | 67 | 129 | 0.0 | 1.0 | 0.01 | 0.42 | 0.01 | 95 | 1012.7 |
| 20260510070600 | 67 | 129 | 0.0 | 1.0 | 0.01 | 0.42 | 0.01 | 95 | 1012.7 |
| 20260510070100 | 67 | 129 | 0.0 | 1.0 | 0.01 | 0.42 | 0.01 | 95 | 1012.7 |
| 20260510065600 | 67 | 129 | 0.0 | 1.0 | 0.01 | 0.42 | 0.01 | 95 | 1013.0 |
| 20260510065059 | 67 | 129 | 0.0 | 1.0 | 0.01 | 0.42 | 0.01 | 95 | 1012.7 |
| 20260510064600 | 67 | 129 | 0.0 | 1.0 | 0.00 | 0.41 | 0.00 | 95 | 1012.7 |
| 20260510064332 | 67 | 129 | 0.0 | 1.0 | 0.00 | 0.41 | 0.00 | 95 | 1012.8 |
| 20260510063558 | 67 | 95 | 0.0 | 1.0 | 0.00 | 0.41 | 0.00 | 95 | 1012.8 |
| 20260510063057 | 67 | 95 | 0.0 | 2.0 | 0.00 | 0.41 | 0.00 | 95 | 1012.8 |
| 20260510062829 | 67 | 95 | 0.0 | 2.0 | 0.00 | 0.41 | 0.00 | 95 | 1012.6 |
| 20260510062330 | 67 | 115 | 0.0 | 1.0 | 0.00 | 0.41 | 0.00 | 95 | 1012.6 |
| 20260510061558 | 67 | 115 | 0.0 | 1.0 | 0.00 | 0.41 | 0.00 | 95 | 1012.8 |
| 20260510061058 | 67 | 115 | 0.0 | 2.0 | 0.00 | 0.41 | 0.00 | 95 | 1012.9 |
| 20260510060555 | 67 | 120 | 0.0 | 2.0 | 0.00 | 0.41 | 0.00 | 95 | 1012.9 |
| 20260510060056 | 67 | 103 | 1.0 | 4.0 | 0.00 | 0.41 | 0.00 | 95 | 1013.0 |
| 20260510055556 | 67 | 127 | 1.0 | 4.0 | 0.00 | 0.41 | 0.00 | 95 | 1013.0 |
| 20260510055055 | 67 | 102 | 1.0 | 3.0 | 0.00 | 0.41 | 0.00 | 95 | 1012.9 |
| 20260510054554 | 67 | 86 | 0.0 | 2.0 | 0.00 | 0.41 | 0.00 | 95 | 1013.1 |
| 20260510054054 | 67 | 83 | 0.0 | 1.0 | 0.00 | 0.41 | 0.00 | 95 | 1013.5 |
| 20260510053553 | 67 | 62 | 0.0 | 2.0 | 0.00 | 0.41 | 0.00 | 95 | 1013.5 |
| 20260510053052 | 67 | 62 | 0.0 | 2.0 | 0.00 | 0.41 | 0.00 | 95 | 1013.6 |
| 20260510052552 | 67 | 61 | 0.0 | 1.0 | 0.00 | 0.41 | 0.00 | 95 | 1013.7 |
| 20260510052051 | 67 | 29 | 0.0 | 1.0 | 0.00 | 0.41 | 0.00 | 95 | 1013.8 |
| 20260510051552 | 67 | 28 | 0.0 | 1.0 | 0.00 | 0.41 | 0.00 | 95 | 1013.8 |
| 20260510051051 | 67 | 28 | 0.0 | 1.0 | 0.00 | 0.41 | 0.00 | 95 | 1013.7 |
| 20260510050552 | 67 | 28 | 0.0 | 0.0 | 0.00 | 0.42 | 0.00 | 95 | 1013.9 |
| 20260510050323 | 67 | 28 | 0.0 | 0.0 | 0.00 | 0.42 | 0.00 | 95 | 1014.0 |
| 20260510045552 | 67 | 28 | 0.0 | 0.0 | 0.00 | 0.42 | 0.42 | 95 | 1013.7 |
| 20260510045051 | 67 | 28 | 0.0 | 0.0 | 0.00 | 0.42 | 0.42 | 95 | 1013.6 |
| 20260510044550 | 67 | 28 | 0.0 | 0.0 | 0.00 | 0.42 | 0.42 | 95 | 1013.7 |
| 20260510044050 | 67 | 28 | 0.0 | 1.0 | 0.00 | 0.42 | 0.42 | 95 | 1013.6 |
| 20260510043821 | 67 | 28 | 0.0 | 1.0 | 0.00 | 0.42 | 0.42 | 95 | 1013.7 |
| 20260510043050 | 67 | 28 | 0.0 | 1.0 | 0.00 | 0.42 | 0.42 | 95 | 1014.0 |
| 20260510042551 | 67 | 28 | 0.0 | 1.0 | 0.00 | 0.42 | 0.42 | 95 | 1014.0 |
| 20260510042050 | 67 | 28 | 0.0 | 1.0 | 0.00 | 0.42 | 0.42 | 95 | 1013.7 |
| 20260510041548 | 67 | 28 | 0.0 | 1.0 | 0.00 | 0.42 | 0.42 | 95 | 1013.6 |
| 20260510041049 | 67 | 25 | 0.0 | 0.0 | 0.00 | 0.42 | 0.42 | 95 | 1014.0 |
| 20260510040547 | 67 | 25 | 0.0 | 0.0 | 0.00 | 0.42 | 0.42 | 95 | 1014.1 |
| 20260510040046 | 67 | 25 | 0.0 | 0.0 | 0.00 | 0.42 | 0.42 | 95 | 1014.1 |
| 20260510035546 | 67 | 25 | 0.0 | 1.0 | 0.00 | 0.42 | 0.42 | 95 | 1014.2 |
| 20260510035318 | 67 | 25 | 0.0 | 1.0 | 0.00 | 0.42 | 0.42 | 95 | 1014.1 |
| 20260510034547 | 67 | 25 | 0.0 | 1.0 | 0.00 | 0.42 | 0.42 | 95 | 1013.9 |
| 20260510034046 | 67 | 25 | 0.0 | 1.0 | 0.00 | 0.42 | 0.42 | 95 | 1014.0 |
| 20260510033547 | 67 | 25 | 0.0 | 1.0 | 0.00 | 0.42 | 0.42 | 95 | 1014.2 |
| 20260510033316 | 68 | 25 | 0.0 | 1.0 | 0.00 | 0.42 | 0.42 | 95 | 1014.1 |
| 20260510032546 | 68 | 25 | 0.0 | 1.0 | 0.00 | 0.42 | 0.42 | 95 | 1014.1 |
| 20260510032046 | 68 | 25 | 0.0 | 0.0 | 0.00 | 0.42 | 0.42 | 95 | 1014.1 |
| 20260510031546 | 68 | 25 | 0.0 | 0.0 | 0.00 | 0.42 | 0.42 | 95 | 1014.0 |
| 20260510031044 | 68 | 25 | 0.0 | 1.0 | 0.00 | 0.42 | 0.42 | 95 | 1014.0 |
| 20260510030544 | 68 | 25 | 0.0 | 1.0 | 0.00 | 0.42 | 0.42 | 95 | 1013.9 |
| 20260510030047 | 68 | 25 | 0.0 | 0.0 | 0.00 | 0.42 | 0.42 | 95 | 1013.7 |
| 20260510030043 | 68 | 25 | 0.0 | 0.0 | 0.00 | 0.42 | 0.42 | 95 | 1013.7 |
| 20260510025043 | 68 | 25 | 0.0 | 0.0 | 0.00 | 0.42 | 0.42 | 95 | 1013.7 |
| 20260510024542 | 68 | 25 | 0.0 | 1.0 | 0.00 | 0.42 | 0.42 | 95 | 1013.7 |
| 20260510024042 | 68 | 25 | 0.0 | 1.0 | 0.00 | 0.42 | 0.42 | 95 | 1013.5 |
| 20260510023542 | 68 | 358 | 0.0 | 2.0 | 0.00 | 0.42 | 0.42 | 95 | 1013.5 |
| 20260510023042 | 68 | 358 | 0.0 | 2.0 | 0.00 | 0.43 | 0.42 | 95 | 1013.5 |
| 20260510022542 | 68 | 47 | 1.0 | 2.0 | 0.00 | 0.44 | 0.42 | 95 | 1013.4 |
| 20260510022040 | 68 | 72 | 1.0 | 2.0 | 0.00 | 0.44 | 0.42 | 95 | 1013.2 |
| 20260510021540 | 68 | 97 | 0.0 | 2.0 | 0.00 | 0.44 | 0.42 | 95 | 1013.3 |
| 20260510021040 | 68 | 61 | 0.0 | 2.0 | 0.01 | 0.45 | 0.42 | 95 | 1013.3 |
| 20260510020540 | 68 | 68 | 0.0 | 1.0 | 0.01 | 0.45 | 0.42 | 94 | 1013.7 |
| 20260510020040 | 68 | 68 | 0.0 | 1.0 | 0.01 | 0.45 | 0.42 | 95 | 1013.9 |
| 20260510015540 | 68 | 68 | 0.0 | 1.0 | 0.01 | 0.45 | 0.42 | 95 | 1013.8 |
| 20260510015039 | 68 | 68 | 1.0 | 2.0 | 0.01 | 0.45 | 0.42 | 95 | 1013.7 |
| 20260510014538 | 68 | 68 | 1.0 | 2.0 | 0.01 | 0.45 | 0.42 | 95 | 1013.6 |
| 20260510014037 | 68 | 63 | 1.0 | 2.0 | 0.01 | 0.45 | 0.42 | 94 | 1013.5 |
| 20260510013536 | 68 | 63 | 0.0 | 2.0 | 0.01 | 0.45 | 0.42 | 94 | 1013.5 |
| 20260510013308 | 69 | 55 | 0.0 | 2.0 | 0.01 | 0.45 | 0.42 | 94 | 1013.5 |
| 20260510013141 | 69 | 55 | 1.0 | 2.0 | 0.01 | 0.46 | 0.42 | 94 | 1013.4 |
| 20260510012640 | 69 | 71 | 1.0 | 2.0 | 0.01 | 0.47 | 0.42 | 94 | 1013.3 |
| 20260510011541 | 69 | 60 | 0.0 | 1.0 | 0.00 | 0.46 | 0.41 | 94 | 1013.6 |
| 20260510011537 | 69 | 74 | 0.0 | 2.0 | 0.01 | 0.47 | 0.42 | 94 | 1013.4 |
| 20260510010536 | 69 | 60 | 0.0 | 1.0 | 0.00 | 0.47 | 0.41 | 94 | 1013.5 |
| 20260510010307 | 69 | 60 | 0.0 | 2.0 | 0.00 | 0.47 | 0.41 | 94 | 1013.6 |
| 20260510005536 | 69 | 71 | 0.0 | 2.0 | 0.01 | 0.48 | 0.41 | 94 | 1013.5 |
| 20260510005034 | 69 | 88 | 0.0 | 1.0 | 0.01 | 0.48 | 0.41 | 94 | 1013.3 |
| 20260510004805 | 69 | 78 | 0.0 | 0.0 | 0.01 | 0.48 | 0.41 | 94 | 1013.5 |
| 20260510004034 | 69 | 78 | 0.0 | 0.0 | 0.01 | 0.48 | 0.41 | 94 | 1013.6 |
| 20260510003534 | 69 | 78 | 0.0 | 1.0 | 0.01 | 0.48 | 0.41 | 94 | 1013.5 |
| 20260510003034 | 69 | 78 | 0.0 | 2.0 | 0.01 | 0.48 | 0.41 | 94 | 1013.3 |
| 20260510002534 | 69 | 78 | 1.0 | 3.0 | 0.01 | 0.48 | 0.41 | 94 | 1013.3 |
| 20260510002039 | 69 | 63 | 1.0 | 3.0 | 0.01 | 0.48 | 0.41 | 94 | 1012.9 |
| 20260510002035 | 69 | 72 | 1.0 | 3.0 | 0.01 | 0.48 | 0.41 | 94 | 1013.2 |
| 20260510001035 | 69 | 44 | 1.0 | 3.0 | 0.01 | 0.48 | 0.41 | 94 | 1012.8 |
| 20260510000533 | 69 | 56 | 1.0 | 3.0 | 0.01 | 0.48 | 0.41 | 94 | 1012.6 |
| 20260510000032 | 69 | 62 | 1.0 | 2.0 | 0.01 | 0.48 | 0.41 | 94 | 1012.6 |
| 20260509235533 | 69 | 73 | 1.0 | 2.0 | 0.01 | 0.47 | 0.40 | 94 | 1012.6 |
| 20260509235032 | 69 | 34 | 0.0 | 1.0 | 0.01 | 0.47 | 0.40 | 94 | 1012.7 |
| 20260509234532 | 69 | 35 | 0.0 | 1.0 | 0.01 | 0.47 | 0.40 | 94 | 1012.7 |
| 20260509234032 | 69 | 34 | 0.0 | 2.0 | 0.01 | 0.47 | 0.40 | 94 | 1012.7 |
| 20260509233802 | 69 | 65 | 1.0 | 2.0 | 0.01 | 0.47 | 0.40 | 94 | 1012.7 |
| 20260509233032 | 69 | 347 | 0.0 | 2.0 | 0.01 | 0.47 | 0.40 | 94 | 1012.6 |
| 20260509232532 | 69 | 53 | 1.0 | 5.0 | 0.01 | 0.47 | 0.40 | 94 | 1012.4 |
| 20260509232032 | 69 | 352 | 2.0 | 5.0 | 0.01 | 0.47 | 0.40 | 94 | 1011.9 |
| 20260509231803 | 69 | 86 | 2.0 | 6.0 | 0.01 | 0.47 | 0.40 | 94 | 1011.3 |
| 20260509231030 | 69 | 61 | 2.0 | 6.0 | 0.01 | 0.48 | 0.40 | 94 | 1011.2 |
| 20260509230530 | 70 | 74 | 2.0 | 6.0 | 0.01 | 0.48 | 0.40 | 93 | 1011.3 |
| 20260509230302 | 70 | 86 | 1.0 | 3.0 | 0.02 | 0.48 | 0.40 | 93 | 1011.7 |
| 20260509225530 | 70 | 160 | 0.0 | 1.0 | 0.01 | 0.47 | 0.39 | 94 | 1012.0 |
| 20260509225030 | 70 | 104 | 0.0 | 1.0 | 0.01 | 0.47 | 0.39 | 93 | 1012.3 |
| 20260509224530 | 70 | 104 | 0.0 | 0.0 | 0.01 | 0.47 | 0.39 | 93 | 1012.4 |
| 20260509224030 | 70 | 104 | 0.0 | 0.0 | 0.01 | 0.48 | 0.39 | 93 | 1012.5 |
| 20260509223530 | 70 | 320 | 0.0 | 0.0 | 0.01 | 0.48 | 0.39 | 93 | 1012.7 |
| 20260509223301 | 70 | 320 | 0.0 | 1.0 | 0.01 | 0.49 | 0.39 | 93 | 1012.7 |
| 20260509222528 | 70 | 319 | 0.0 | 1.0 | 0.01 | 0.50 | 0.39 | 93 | 1012.5 |
| 20260509222028 | 70 | 317 | 0.0 | 1.0 | 0.02 | 0.51 | 0.39 | 93 | 1012.3 |
| 20260509221527 | 70 | 317 | 0.0 | 1.0 | 0.02 | 0.52 | 0.39 | 93 | 1012.5 |
| 20260509221259 | 70 | 317 | 0.0 | 1.0 | 0.02 | 0.53 | 0.39 | 93 | 1012.4 |
| 20260509220528 | 70 | 340 | 0.0 | 1.0 | 0.02 | 0.54 | 0.39 | 93 | 1012.4 |
| 20260509220027 | 70 | 68 | 0.0 | 1.0 | 0.01 | 0.54 | 0.38 | 93 | 1012.2 |
| 20260509215528 | 70 | 100 | 0.0 | 1.0 | 0.01 | 0.54 | 0.38 | 92 | 1012.0 |
| 20260509215258 | 70 | 100 | 0.0 | 1.0 | 0.01 | 0.54 | 0.38 | 92 | 1012.5 |
| 20260509214528 | 70 | 101 | 0.0 | 1.0 | 0.01 | 0.54 | 0.38 | 92 | 1012.5 |
| 20260509214258 | 70 | 101 | 0.0 | 1.0 | 0.01 | 0.55 | 0.38 | 92 | 1012.6 |
| 20260509213526 | 70 | 101 | 0.0 | 2.0 | 0.01 | 0.55 | 0.38 | 92 | 1012.6 |
| 20260509213026 | 70 | 101 | 0.0 | 2.0 | 0.01 | 0.56 | 0.38 | 92 | 1012.6 |
| 20260509212756 | 70 | 322 | 0.0 | 2.0 | 0.01 | 0.58 | 0.38 | 91 | 1012.6 |
| 20260509212026 | 70 | 322 | 0.0 | 2.0 | 0.00 | 0.58 | 0.37 | 91 | 1012.6 |
| 20260509211526 | 70 | 212 | 0.0 | 3.0 | 0.00 | 0.59 | 0.37 | 91 | 1012.3 |
| 20260509211025 | 70 | 212 | 1.0 | 3.0 | 0.00 | 0.59 | 0.37 | 91 | 1012.2 |
| 20260509210526 | 70 | 53 | 1.0 | 3.0 | 0.00 | 0.59 | 0.37 | 91 | 1011.6 |
| 20260509210026 | 70 | 204 | 0.0 | 2.0 | 0.00 | 0.61 | 0.37 | 91 | 1011.5 |
| 20260509205526 | 70 | 27 | 0.0 | 2.0 | 0.00 | 0.66 | 0.37 | 91 | 1011.9 |
| 20260509205026 | 70 | 6 | 0.0 | 2.0 | 0.00 | 0.69 | 0.37 | 91 | 1012.2 |
| 20260509204524 | 70 | 23 | 0.0 | 2.0 | 0.00 | 0.72 | 0.37 | 91 | 1012.2 |
| 20260509204024 | 70 | 23 | 0.0 | 2.0 | 0.00 | 0.76 | 0.37 | 91 | 1012.2 |
| 20260509203528 | 70 | 294 | 1.0 | 4.0 | 0.00 | 0.81 | 0.37 | 91 | 1012.4 |
| 20260509203524 | 70 | 294 | 0.0 | 2.0 | 0.00 | 0.81 | 0.37 | 91 | 1012.2 |
| 20260509202524 | 70 | 84 | 0.0 | 4.0 | 0.00 | 0.81 | 0.37 | 91 | 1012.0 |
| 20260509202024 | 70 | 329 | 0.0 | 2.0 | 0.00 | 0.81 | 0.37 | 91 | 1012.3 |
| 20260509201524 | 70 | 234 | 0.0 | 3.0 | 0.00 | 0.82 | 0.37 | 91 | 1012.2 |
| 20260509201024 | 71 | 283 | 0.0 | 3.0 | 0.00 | 0.82 | 0.37 | 90 | 1012.0 |
| 20260509200524 | 71 | 103 | 1.0 | 6.0 | 0.00 | 0.82 | 0.37 | 91 | 1011.9 |
| 20260509200024 | 71 | 327 | 1.0 | 6.0 | 0.00 | 0.82 | 0.37 | 90 | 1011.6 |
| 20260509195521 | 71 | 317 | 2.0 | 5.0 | 0.00 | 0.82 | 0.37 | 91 | 1011.3 |
| 20260509195022 | 71 | 68 | 2.0 | 5.0 | 0.00 | 0.82 | 0.37 | 90 | 1010.4 |
| 20260509194758 | 72 | 321 | 1.0 | 5.0 | 0.00 | 0.82 | 0.37 | 89 | 1011.1 |
| 20260509194522 | 72 | 223 | 2.0 | 5.0 | 0.00 | 0.82 | 0.37 | 89 | 1010.9 |
| 20260509193522 | 72 | 319 | 1.0 | 4.0 | 0.00 | 0.82 | 0.37 | 88 | 1010.3 |
| 20260509193022 | 72 | 206 | 2.0 | 6.0 | 0.00 | 0.82 | 0.37 | 88 | 1009.4 |
| 20260509192523 | 72 | 86 | 1.0 | 6.0 | 0.00 | 0.82 | 0.37 | 87 | 1009.4 |
| 20260509192022 | 72 | 117 | 1.0 | 3.0 | 0.00 | 0.82 | 0.37 | 88 | 1010.2 |
| 20260509191522 | 72 | 321 | 1.0 | 3.0 | 0.00 | 0.82 | 0.37 | 87 | 1010.6 |
| 20260509191022 | 73 | 314 | 1.0 | 3.0 | 0.00 | 0.82 | 0.37 | 87 | 1010.7 |
| 20260509190522 | 73 | 50 | 1.0 | 3.0 | 0.00 | 0.82 | 0.37 | 87 | 1010.9 |
| 20260509190254 | 73 | 1 | 1.0 | 3.0 | 0.00 | 0.82 | 0.37 | 86 | 1011.0 |
| 20260509185522 | 73 | 6 | 0.0 | 2.0 | 0.00 | 0.82 | 0.37 | 86 | 1010.6 |
| 20260509185022 | 73 | 233 | 1.0 | 4.0 | 0.00 | 0.82 | 0.37 | 86 | 1010.6 |
| 20260509184523 | 73 | 213 | 1.0 | 5.0 | 0.00 | 0.82 | 0.37 | 86 | 1010.5 |
| 20260509184022 | 72 | 82 | 1.0 | 5.0 | 0.00 | 0.82 | 0.37 | 86 | 1010.4 |
| 20260509183522 | 72 | 180 | 1.0 | 5.0 | 0.00 | 0.83 | 0.37 | 87 | 1010.1 |
| 20260509183022 | 72 | 146 | 2.0 | 5.0 | 0.00 | 0.83 | 0.37 | 88 | 1010.0 |
| 20260509182522 | 72 | 155 | 2.0 | 6.0 | 0.00 | 0.88 | 0.37 | 89 | 1010.0 |
| 20260509182020 | 71 | 94 | 3.0 | 9.0 | 0.00 | 0.88 | 0.37 | 91 | 1010.1 |
| 20260509181751 | 71 | 101 | 4.0 | 9.0 | 0.00 | 0.88 | 0.37 | 91 | 1010.2 |
| 20260509181630 | 69 | 70 | 3.0 | 6.0 | 0.02 | 0.88 | 0.37 | 94 | 1011.1 |
| 20260509181024 | 70 | 96 | 3.0 | 10.0 | 0.01 | 0.88 | 0.37 | 93 | 1010.8 |
| 20260509181020 | 70 | 117 | 4.0 | 10.0 | 0.01 | 0.88 | 0.37 | 93 | 1010.3 |
| 20260509175520 | 69 | 70 | 2.0 | 5.0 | 0.02 | 0.88 | 0.37 | 94 | 1011.6 |
| 20260509175020 | 69 | 101 | 2.0 | 5.0 | 0.02 | 0.88 | 0.37 | 94 | 1011.8 |
| 20260509174519 | 68 | 88 | 3.0 | 6.0 | 0.03 | 0.88 | 0.37 | 94 | 1012.2 |
| 20260509174018 | 68 | 84 | 3.0 | 6.0 | 0.03 | 0.88 | 0.37 | 94 | 1012.4 |
| 20260509173518 | 68 | 109 | 3.0 | 7.0 | 0.05 | 0.88 | 0.37 | 95 | 1012.6 |
| 20260509173019 | 67 | 69 | 3.0 | 7.0 | 0.07 | 0.88 | 0.37 | 95 | 1012.7 |
| 20260509172748 | 67 | 89 | 3.0 | 7.0 | 0.09 | 0.88 | 0.37 | 95 | 1012.9 |
| 20260509172018 | 67 | 70 | 3.0 | 6.0 | 0.12 | 0.88 | 0.37 | 95 | 1013.1 |
| 20260509171518 | 66 | 81 | 2.0 | 5.0 | 0.14 | 0.88 | 0.37 | 95 | 1013.5 |
| 20260509171018 | 66 | 71 | 2.0 | 5.0 | 0.14 | 0.87 | 0.36 | 95 | 1013.8 |
| 20260509170518 | 66 | 98 | 2.0 | 5.0 | 0.15 | 0.87 | 0.36 | 95 | 1014.2 |
| 20260509170018 | 66 | 140 | 2.0 | 5.0 | 0.17 | 0.86 | 0.35 | 95 | 1014.3 |
| 20260509165518 | 66 | 112 | 2.0 | 5.0 | 0.18 | 0.86 | 0.35 | 95 | 1014.3 |
| 20260509165018 | 66 | 84 | 1.0 | 4.0 | 0.20 | 0.86 | 0.35 | 95 | 1014.4 |
| 20260509164518 | 65 | 95 | 1.0 | 3.0 | 0.20 | 0.85 | 0.34 | 95 | 1014.6 |